DLH249 EDDK-EDDN

Flight info

Callsign DLH249
Flight time 0h 34m
Altitude 23000
Route KUMIK2Q KUMIK L603 TESGA Z719 ETOLU Z723 KOMIB T193 ERTES T194 DODAS DODAS1T
Aircraft A320/M-SDE3FGHIRWY/LB1

Departure

Time 2026-04-22 09:16
Airport Cologne Bonn Airport (EDDK)

Arrival

Time 2026-04-22 09:51
Airport Nuremberg Airport (EDDN)
Time Latitude Longitude Altitude Speed Heading
2026-04-22 08:40 50.88198 7.11903 232 ft 0 kts 216°
2026-04-22 09:09 50.88206 7.11912 232 ft 4 kts 215°
2026-04-22 09:09 50.88228 7.11936 235 ft 4 kts 208°
2026-04-22 09:10 50.88253 7.11952 236 ft 4 kts 185°
2026-04-22 09:10 50.88272 7.11945 234 ft 1 kts 126°
2026-04-22 09:10 50.88272 7.11944 234 ft 0 kts 126°
2026-04-22 09:12 50.88270 7.11950 234 ft 4 kts 126°
2026-04-22 09:13 50.88248 7.11996 232 ft 5 kts 126°
2026-04-22 09:13 50.88230 7.12037 232 ft 8 kts 126°
2026-04-22 09:13 50.88170 7.12167 234 ft 17 kts 126°
2026-04-22 09:13 50.88093 7.12337 232 ft 20 kts 125°
2026-04-22 09:14 50.88013 7.12541 234 ft 23 kts 119°
2026-04-22 09:14 50.87994 7.12742 239 ft 13 kts 74°
2026-04-22 09:14 50.88008 7.12876 239 ft 14 kts 92°
2026-04-22 09:14 50.87968 7.13021 239 ft 15 kts 131°
2026-04-22 09:15 50.87935 7.13072 239 ft 0 kts 137°
2026-04-22 09:16 50.87856 7.13187 239 ft 50 kts 137°
2026-04-22 09:16 50.87432 7.13801 241 ft 112 kts 137°
2026-04-22 09:16 50.86737 7.14811 274 ft 157 kts 136°
2026-04-22 09:16 50.85935 7.15959 934 ft 154 kts 136°
2026-04-22 09:17 50.85138 7.17079 1688 ft 160 kts 136°
2026-04-22 09:17 50.84254 7.18324 2141 ft 181 kts 135°
2026-04-22 09:17 50.83262 7.19724 2409 ft 202 kts 136°
2026-04-22 09:17 50.82204 7.21336 2811 ft 217 kts 123°
2026-04-22 09:18 50.81640 7.23536 3583 ft 218 kts 103°
2026-04-22 09:18 50.81364 7.25953 4165 ft 234 kts 98°
2026-04-22 09:18 50.81107 7.28588 4730 ft 248 kts 98°
2026-04-22 09:18 50.80849 7.31310 5009 ft 251 kts 98°
2026-04-22 09:19 50.80597 7.34065 5851 ft 252 kts 97°
2026-04-22 09:19 50.80351 7.36824 6773 ft 254 kts 97°
2026-04-22 09:19 50.80106 7.39598 7620 ft 256 kts 96°
2026-04-22 09:19 50.79859 7.42399 8459 ft 259 kts 96°
2026-04-22 09:20 50.79610 7.45238 9292 ft 262 kts 96°
2026-04-22 09:20 50.79357 7.48100 10121 ft 265 kts 96°
2026-04-22 09:20 50.79099 7.51033 10687 ft 277 kts 96°
2026-04-22 09:20 50.78823 7.54173 10904 ft 301 kts 96°
2026-04-22 09:21 50.78530 7.57570 11068 ft 323 kts 95°
2026-04-22 09:21 50.78573 7.61204 11427 ft 336 kts 81°
2026-04-22 09:21 50.78845 7.63623 11826 ft 339 kts 79°
2026-04-22 09:21 50.79406 7.68576 12727 ft 345 kts 79°
2026-04-22 09:22 50.79681 7.71049 13181 ft 347 kts 79°
2026-04-22 09:22 50.80098 7.74837 13860 ft 351 kts 79°
2026-04-22 09:22 50.80655 7.79898 14669 ft 355 kts 79°
2026-04-22 09:22 50.81082 7.83760 15260 ft 358 kts 79°
2026-04-22 09:23 50.81371 7.86380 15666 ft 360 kts 79°
2026-04-22 09:23 50.81800 7.90289 16258 ft 362 kts 79°
2026-04-22 09:23 50.82229 7.94232 16843 ft 365 kts 79°
2026-04-22 09:23 50.82662 7.98209 17401 ft 368 kts 79°
2026-04-22 09:24 50.82983 8.02238 17962 ft 372 kts 86°
2026-04-22 09:24 50.82812 8.06290 18486 ft 378 kts 98°
2026-04-22 09:24 50.82094 8.10318 18966 ft 384 kts 109°
2026-04-22 09:24 50.80840 8.14079 19438 ft 391 kts 120°
2026-04-22 09:25 50.79321 8.17655 19903 ft 393 kts 120°
2026-04-22 09:25 50.77794 8.21261 20387 ft 395 kts 120°
2026-04-22 09:25 50.76262 8.24885 20838 ft 398 kts 120°
2026-04-22 09:25 50.74721 8.28527 21290 ft 400 kts 120°
2026-04-22 09:26 50.73167 8.32192 21709 ft 403 kts 120°
2026-04-22 09:26 50.71599 8.35866 22175 ft 406 kts 122°
2026-04-22 09:26 50.69772 8.39304 22604 ft 412 kts 131°
2026-04-22 09:26 50.67566 8.42241 23012 ft 420 kts 141°
2026-04-22 09:27 50.65030 8.44617 23317 ft 426 kts 148°
2026-04-22 09:27 50.62391 8.46844 23365 ft 436 kts 148°
2026-04-22 09:27 50.59696 8.49118 23361 ft 443 kts 148°
2026-04-22 09:27 50.56967 8.51417 23360 ft 445 kts 148°
2026-04-22 09:28 50.54230 8.53715 23354 ft 447 kts 149°
2026-04-22 09:28 50.51485 8.56012 23356 ft 447 kts 149°
2026-04-22 09:28 50.48769 8.58285 23356 ft 447 kts 149°
2026-04-22 09:28 50.46125 8.60809 23348 ft 443 kts 139°
2026-04-22 09:29 50.43979 8.64203 23351 ft 436 kts 123°
2026-04-22 09:29 50.42481 8.68298 23351 ft 431 kts 111°
2026-04-22 09:29 50.41228 8.72576 23344 ft 432 kts 112°
2026-04-22 09:29 50.39818 8.76738 23339 ft 434 kts 119°
2026-04-22 09:30 50.38193 8.80733 23334 ft 434 kts 120°
2026-04-22 09:30 50.36563 8.84721 23334 ft 434 kts 120°
2026-04-22 09:30 50.34932 8.88695 23325 ft 434 kts 120°
2026-04-22 09:30 50.33296 8.92670 23325 ft 434 kts 120°
2026-04-22 09:31 50.31657 8.96650 23322 ft 434 kts 120°
2026-04-22 09:31 50.30013 9.00630 23322 ft 434 kts 120°
2026-04-22 09:31 50.28397 9.04543 23317 ft 435 kts 120°
2026-04-22 09:31 50.26749 9.08517 23310 ft 436 kts 120°
2026-04-22 09:32 50.25098 9.12488 23307 ft 436 kts 120°
2026-04-22 09:32 50.23443 9.16464 23305 ft 437 kts 120°
2026-04-22 09:32 50.21785 9.20446 23315 ft 437 kts 120°
2026-04-22 09:32 50.20132 9.24416 23311 ft 437 kts 120°
2026-04-22 09:33 50.18474 9.28408 23311 ft 438 kts 120°
2026-04-22 09:33 50.16816 9.32391 23309 ft 438 kts 120°
2026-04-22 09:33 50.15154 9.36370 23313 ft 438 kts 120°
2026-04-22 09:33 50.13489 9.40347 23312 ft 438 kts 120°
2026-04-22 09:34 50.11826 9.44322 23312 ft 438 kts 120°
2026-04-22 09:34 50.10157 9.48298 23305 ft 438 kts 120°
2026-04-22 09:34 50.08481 9.52274 23307 ft 438 kts 120°
2026-04-22 09:35 50.05183 9.60067 22375 ft 429 kts 120°
2026-04-22 09:35 50.03550 9.63922 21720 ft 424 kts 120°
2026-04-22 09:35 50.01937 9.67735 21065 ft 420 kts 120°
2026-04-22 09:35 50.00339 9.71518 20398 ft 417 kts 120°
2026-04-22 09:36 49.98752 9.75267 19768 ft 414 kts 120°
2026-04-22 09:36 49.97172 9.78990 19165 ft 410 kts 121°
2026-04-22 09:36 49.95609 9.82673 18578 ft 407 kts 121°
2026-04-22 09:36 49.94056 9.86324 17947 ft 403 kts 121°
2026-04-22 09:37 49.92513 9.89934 17325 ft 399 kts 121°
2026-04-22 09:37 49.90982 9.93499 16735 ft 395 kts 121°
2026-04-22 09:37 49.89461 9.97029 16156 ft 391 kts 121°
2026-04-22 09:37 49.87961 10.00515 15582 ft 387 kts 121°
2026-04-22 09:38 49.86479 10.03973 15081 ft 383 kts 120°
2026-04-22 09:38 49.85011 10.07396 14545 ft 379 kts 121°
2026-04-22 09:38 49.83558 10.10780 14010 ft 375 kts 121°
2026-04-22 09:38 49.82118 10.14134 13422 ft 372 kts 121°
2026-04-22 09:39 49.80693 10.17448 12858 ft 368 kts 121°
2026-04-22 09:39 49.79279 10.20731 12278 ft 365 kts 121°
2026-04-22 09:39 49.77876 10.23979 11707 ft 361 kts 121°
2026-04-22 09:39 49.76484 10.27190 11135 ft 357 kts 121°
2026-04-22 09:40 49.75143 10.30276 10974 ft 343 kts 121°
2026-04-22 09:40 49.73826 10.33301 10844 ft 327 kts 121°
2026-04-22 09:40 49.72592 10.36129 10732 ft 314 kts 121°
2026-04-22 09:40 49.71393 10.38873 10607 ft 302 kts 121°
2026-04-22 09:41 49.70236 10.41519 10480 ft 292 kts 121°
2026-04-22 09:41 49.69123 10.44070 10365 ft 282 kts 120°
2026-04-22 09:41 49.68042 10.46547 10167 ft 274 kts 120°
2026-04-22 09:41 49.66980 10.48957 9941 ft 268 kts 124°
2026-04-22 09:42 49.65649 10.50936 9733 ft 266 kts 141°
2026-04-22 09:42 49.63926 10.52177 9103 ft 282 kts 162°
2026-04-22 09:42 49.61933 10.52413 8496 ft 296 kts 182°
2026-04-22 09:42 49.59869 10.51956 7901 ft 302 kts 184°
2026-04-22 09:43 49.57824 10.52015 7403 ft 295 kts 162°
2026-04-22 09:43 49.56024 10.53463 6681 ft 286 kts 134°
2026-04-22 09:43 49.54936 10.55933 5934 ft 277 kts 108°
2026-04-22 09:43 49.54565 10.58801 5332 ft 269 kts 97°
2026-04-22 09:44 49.54310 10.61553 4943 ft 257 kts 97°
2026-04-22 09:44 49.54058 10.64211 4547 ft 246 kts 97°
2026-04-22 09:44 49.53822 10.66696 4472 ft 222 kts 97°
2026-04-22 09:44 49.53612 10.68923 4473 ft 199 kts 97°
2026-04-22 09:45 49.53423 10.70918 4491 ft 177 kts 97°
2026-04-22 09:45 49.53248 10.72763 4513 ft 171 kts 96°
2026-04-22 09:45 49.53078 10.74556 4490 ft 167 kts 96°
2026-04-22 09:45 49.52916 10.76258 4491 ft 153 kts 96°
2026-04-22 09:46 49.52767 10.77814 4476 ft 143 kts 96°
2026-04-22 09:46 49.52624 10.79317 4442 ft 141 kts 96°
2026-04-22 09:46 49.52482 10.80805 4322 ft 142 kts 97°
2026-04-22 09:46 49.52339 10.82309 4119 ft 142 kts 96°
2026-04-22 09:47 49.52194 10.83813 3951 ft 143 kts 97°
2026-04-22 09:47 49.52050 10.85316 3797 ft 142 kts 96°
2026-04-22 09:47 49.51907 10.86807 3587 ft 140 kts 96°
2026-04-22 09:47 49.51764 10.88292 3409 ft 139 kts 95°
2026-04-22 09:48 49.51621 10.89777 3207 ft 141 kts 96°
2026-04-22 09:48 49.51476 10.91283 3014 ft 142 kts 96°
2026-04-22 09:48 49.51332 10.92774 2821 ft 139 kts 96°
2026-04-22 09:48 49.51190 10.94245 2626 ft 137 kts 96°
2026-04-22 09:49 49.51049 10.95693 2437 ft 137 kts 96°
2026-04-22 09:49 49.50908 10.97154 2228 ft 138 kts 94°
2026-04-22 09:49 49.50766 10.98614 2041 ft 138 kts 96°
2026-04-22 09:49 49.50625 11.00066 1834 ft 139 kts 97°
2026-04-22 09:50 49.50485 11.01502 1648 ft 137 kts 98°
2026-04-22 09:50 49.50344 11.02944 1452 ft 136 kts 98°
2026-04-22 09:50 49.50205 11.04364 1275 ft 133 kts 99°
2026-04-22 09:50 49.50066 11.05794 1096 ft 136 kts 99°
2026-04-22 09:51 49.49930 11.07185 1025 ft 121 kts 99°
2026-04-22 09:51 49.49829 11.08206 1032 ft 74 kts 99°
2026-04-22 09:51 49.49768 11.08547 1037 ft 12 kts 160°
2026-04-22 09:51 49.49691 11.08537 1036 ft 9 kts 217°
2026-04-22 09:52 49.49651 11.08467 1035 ft 9 kts 233°
2026-04-22 09:52 49.49618 11.08390 1033 ft 9 kts 233°
2026-04-22 09:52 49.49562 11.08350 1031 ft 10 kts 195°
2026-04-22 09:52 49.49535 11.08265 1028 ft 10 kts 278°
2026-04-22 09:53 49.49545 11.08161 1024 ft 9 kts 279°
2026-04-22 09:53 49.49556 11.08070 1028 ft 8 kts 279°
2026-04-22 09:53 49.49565 11.07991 1027 ft 7 kts 278°
2026-04-22 09:53 49.49572 11.07909 1027 ft 10 kts 278°
2026-04-22 09:54 49.49582 11.07806 1027 ft 9 kts 278°
2026-04-22 09:54 49.49591 11.07712 1024 ft 9 kts 278°
2026-04-22 09:54 49.49565 11.07668 1025 ft 6 kts 189°
2026-04-22 09:54 49.49532 11.07660 1026 ft 4 kts 187°
2026-04-22 09:55 49.49527 11.07659 1026 ft 0 kts 187°